Overview Statistics Trail Chart Weather Telemetry Raw packets
 

This is the latest recevied weather packets stored in our database for station/object K5IDL. If no packets are shown the sender has not sent any weather packets the latest 10 day(s).

<< 101 102 103 104 105 106 107 >>
Time Temp. Humidity Pressure Rain* Wind** Luminosity Snow
1787949837 37.22° C 37% 1017.2 hPa 0 mm - 111 W/m² -
1787949536 38.33° C 36% 1017.1 hPa 0 mm - 75 W/m² -
1787949231 38.33° C 36% 1017.1 hPa 0 mm - 84 W/m² -
1787948927 38.33° C 36% 1017.1 hPa 0 mm - 80 W/m² -
1787948622 37.78° C 36% 1017.2 hPa 0 mm - 71 W/m² -
1787948318 37.78° C 38% 1017.3 hPa 0 mm - 73 W/m² -
1787948017 37.22° C 38% 1017.3 hPa 0 mm - 92 W/m² -
1787947720 37.78° C 38% 1017.5 hPa 0 mm - 182 W/m² -
1787947411 37.78° C 37% 1018 hPa 0 mm - 87 W/m² -
1787947110 37.78° C 37% 1017.6 hPa 0 mm - 76 W/m² -
1787946809 37.78° C 38% 1018 hPa 0 mm - 68 W/m² -
1787946507 37.78° C 38% 1017.9 hPa 0 mm - 84 W/m² -
1787946203 37.22° C 38% 1018.2 hPa 0 mm - 91 W/m² -
1787945902 38.33° C 37% 1018.2 hPa 0 mm - 94 W/m² -
1787945598 36.67° C 38% 1018.2 hPa 0 mm - 90 W/m² -
1787945298 37.22° C 38% 1018.2 hPa 0 mm - 78 W/m² -
1787944993 37.22° C 39% 1018.3 hPa 0 mm - 84 W/m² -
1787944690 37.22° C 39% 1018.4 hPa 0 mm - 132 W/m² -
1787944387 37.22° C 40% 1018.6 hPa 0 mm - 229 W/m² -
1787944081 36.11° C 41% 1018.4 hPa 0 mm - 106 W/m² -
1787943777 36.67° C 40% 1018.7 hPa 0 mm - 112 W/m² -
1787943472 36.11° C 40% 1018.5 hPa 0 mm - 105 W/m² -
1787943167 36.67° C 40% 1018.7 hPa 0 mm - 105 W/m² -
1787942861 36.67° C 39% 1018.8 hPa 0 mm - 251 W/m² -
1787942558 36.11° C 40% 1018.6 hPa 0 mm - 598 W/m² -

* Rain latest hour (hover to see other rain measurements)
** Current wind speed in m/s (hover to see current wind gust speed)